Weather History for Keene, NH

Change the Weather History Date:

Friday, October 26, 2012

  Actual Average Record
Temperature  
Mean Temperature 54 °F -  
Max Temperature 62 °F 57 °F 82 °F (1963)
Min Temperature 46 °F 35 °F 15 °F (1952)
Degree Days  
Heating Degree Days 11    
Growing Degree Days 4 (Base 50)    
Moisture  
Dew Point 47 °F    
Average Humidity 80    
Maximum Humidity 87    
Minimum Humidity 68    
Precipitation  
Precipitation 0.00 in - - ()
Sea Level Pressure  
Sea Level Pressure 30.21 in    
Wind  
Wind Speed 2 mph (SSW)    
Max Wind Speed 8 mph    
Max Gust Speed -    
Visibility 10 miles    
Events      
Averages and records for this station are not official NWS values.
T = Trace of Precipitation, MM = Missing Value Source: NWS Daily Summary

Daily Weather History Graph

Daily Weather History Graph

Search for Another Location

Airport:

Trip Planner

Search our weather history database for the weather conditions in past years. The results will help you decide how hot, cold, wet, or windy it might be!

Date:

Astronomy

Oct. 26, 2012 Rise Set
Actual Time 7:16 AM EDT 5:48 PM EDT
Civil Twilight 6:47 AM EDT 6:18 PM EDT
Nautical Twilight 6:14 AM EDT 6:51 PM EDT
Astronomical Twilight 5:41 AM EDT 7:23 PM EDT
Moon 4:06 PM EDT (10/26) 4:06 AM EDT (10/26)
Length of Visible Light 11h 30m
Length of Day
10h 32m
Waxing Gibbous, 91% of the Moon is Illuminated
Oct 26
Waxing Gibbous
Oct 29
Full
Nov 6
Last Quarter
Nov 13
New
Nov 20
First Quarter

Hourly Weather History & Observations

Time (EDT) Temp. Windchill Dew Point Humidity Pressure Visibility Wind Dir Wind Speed Gust Speed Precip Events Conditions
12:15 AM 46.4 °F 45.2 °F 42.8 °F 87% 30.24 in 10.0 mi South 3.5 mph - N/A   Overcast
12:35 AM 46.4 °F 44.3 °F 42.8 °F 87% 30.24 in 10.0 mi SSW 4.6 mph - N/A   Overcast
12:55 AM 46.4 °F - 42.8 °F 87% 30.24 in 10.0 mi Calm Calm - N/A   Overcast
1:15 AM 48.2 °F - 42.8 °F 82% 30.24 in 10.0 mi Calm Calm - N/A   Overcast
1:35 AM 48.2 °F - 42.8 °F 82% 30.23 in 10.0 mi Calm Calm - N/A   Overcast
2:15 AM 48.2 °F - 42.8 °F 82% 30.24 in 10.0 mi Calm Calm - N/A   Overcast
2:35 AM 48.2 °F - 42.8 °F 82% 30.24 in 10.0 mi Calm Calm - N/A   Overcast
2:55 AM 48.2 °F - 44.6 °F 87% 30.24 in 10.0 mi Calm Calm - N/A   Overcast
3:15 AM 48.2 °F - 44.6 °F 87% 30.24 in 10.0 mi Calm Calm - N/A   Overcast
3:35 AM 48.2 °F - 44.6 °F 87% 30.23 in 10.0 mi Calm Calm - N/A   Overcast
3:55 AM 48.2 °F - 44.6 °F 87% 30.23 in 10.0 mi Calm Calm - N/A   Overcast
4:15 AM 48.2 °F - 44.6 °F 87% 30.23 in 10.0 mi Calm Calm - N/A   Overcast
4:55 AM 50.0 °F - 44.6 °F 82% 30.23 in 10.0 mi Calm Calm - N/A   Overcast
5:15 AM 50.0 °F - 44.6 °F 82% 30.22 in 10.0 mi Calm Calm - N/A   Overcast
5:35 AM 50.0 °F - 44.6 °F 82% 30.22 in 10.0 mi Calm Calm - N/A   Overcast
5:55 AM 50.0 °F - 44.6 °F 82% 30.21 in 10.0 mi Calm Calm - N/A   Overcast
6:15 AM 50.0 °F - 44.6 °F 82% 30.21 in 10.0 mi Calm Calm - N/A   Overcast
6:35 AM 50.0 °F - 44.6 °F 82% 30.21 in 10.0 mi Calm Calm - N/A   Overcast
6:55 AM 50.0 °F - 44.6 °F 82% 30.20 in 10.0 mi Calm Calm - N/A   Overcast
7:15 AM 50.0 °F - 44.6 °F 82% 30.20 in 10.0 mi Calm Calm - N/A   Overcast
7:35 AM 50.0 °F - 46.4 °F 87% 30.20 in 10.0 mi Calm Calm - N/A   Overcast
8:15 AM 51.8 °F - 46.4 °F 82% 30.22 in 10.0 mi Calm Calm - N/A   Overcast
8:56 AM 53.6 °F - 48.2 °F 82% 30.22 in 10.0 mi South 3.5 mph - N/A   Overcast
9:35 AM 55.4 °F - 48.2 °F 77% 30.22 in 10.0 mi South 6.9 mph - N/A   Overcast
9:55 AM 55.4 °F - 48.2 °F 77% 30.21 in 10.0 mi SSW 6.9 mph - N/A   Overcast
10:15 AM 55.4 °F - 50.0 °F 82% 30.22 in 10.0 mi SSW 8.1 mph - N/A   Overcast
10:35 AM 55.4 °F - 50.0 °F 82% 30.22 in 10.0 mi SSW 6.9 mph - N/A   Overcast
10:55 AM 57.2 °F - 50.0 °F 77% 30.21 in 10.0 mi SSW 5.8 mph - N/A   Overcast
11:15 AM 57.2 °F - 50.0 °F 77% 30.21 in 10.0 mi SSW 4.6 mph - N/A   Overcast
11:35 AM 57.2 °F - 50.0 °F 77% 30.21 in 10.0 mi South 5.8 mph - N/A   Overcast
11:55 AM 57.2 °F - 51.8 °F 82% 30.20 in 10.0 mi Calm Calm - N/A   Overcast
12:15 PM 57.2 °F - 50.0 °F 77% 30.19 in 10.0 mi SSW 5.8 mph - N/A   Overcast
12:35 PM 59.0 °F - 51.8 °F 77% 30.19 in 10.0 mi SW 3.5 mph - N/A   Overcast
12:55 PM 59.0 °F - 51.8 °F 77% 30.19 in 10.0 mi SSW 4.6 mph - N/A   Overcast
1:15 PM 60.8 °F - 51.8 °F 72% 30.18 in 10.0 mi South 4.6 mph - N/A   Overcast
1:35 PM 60.8 °F - 51.8 °F 72% 30.17 in 10.0 mi SSE 6.9 mph - N/A   Overcast
1:55 PM 62.6 °F - 51.8 °F 68% 30.16 in 10.0 mi South 6.9 mph - N/A   Mostly Cloudy
2:15 PM 62.6 °F - 51.8 °F 68% 30.16 in 10.0 mi South 8.1 mph - N/A   Mostly Cloudy
2:35 PM 62.6 °F - 51.8 °F 68% 30.14 in 10.0 mi South 4.6 mph - N/A   Scattered Clouds
2:55 PM 62.6 °F - 51.8 °F 68% 30.14 in 10.0 mi South 5.8 mph - N/A   Clear